Kuchera_Ratio
9.5 9.0 8.8 8.6 7.9 6.4 5.8 5.4 4.7 3.0 2.0 1.0 0.8 0.3 0.1 0.0 0.0 0.6 0.3 0.0 0.0 0.0 0.0 0.0 0.9 0.5 0.0 0.0 0.7 0.6 0.0 0.0 0.0 0.0 0.0 0.0 0.0 0.6 0.4 1.4 4.6 6.8 6.8 0.4 0.0 0.0 0.0 0.0 0.0 0.0 0.0 0.0 0.0 0.0 0.0 0.0 0.0 0.0 0.0 0.0 0.0 0.0 0.1
11.5 11.2 11.0 10.4 9.6 8.6 8.1 8.1 7.4 6.4 5.8 5.9 5.1 3.8 2.1 1.8 1.8 2.0 1.8 1.1 1.6 0.9 0.6 0.8 1.7 2.4 1.3 0.1 1.6 3.6 3.3 2.3 1.3 2.9 1.8 1.4 2.6 1.9 3.1 0.0 4.4 5.9 6.8 7.8 0.3 0.0 0.0 0.0 0.0 0.0 0.0 0.0 0.0 0.9 0.6 1.4 0.4 0.0 0.0 0.0 0.0 0.0 0.0
12.7 12.8 12.4 12.2 11.4 10.3 10.1 9.8 9.6 8.7 9.3 9.6 9.1 8.7 7.1 5.4 4.4 4.2 4.3 4.3 3.8 3.0 1.9 2.9 4.1 3.1 2.6 3.7 5.4 5.1 4.5 3.8 4.3 3.4 4.3 4.8 3.7 3.9 2.8 1.6 1.6 5.6 9.3 9.1 6.8 0.9 1.0 0.0 0.0 0.0 0.0 0.0 0.0 0.0 0.7 3.7 3.1 2.3 1.5 0.8 0.0 0.0 0.0
12.6 12.8 12.9 13.2 12.7 12.4 12.3 12.3 11.9 11.6 11.0 11.4 10.7 10.6 10.9 9.9 9.4 8.6 7.5 7.3 6.3 5.4 5.2 6.3 6.6 6.4 4.4 5.5 7.1 7.3 5.4 4.8 5.6 6.0 5.9 6.5 5.8 5.0 4.3 3.3 3.0 3.6 7.3 8.3 9.8 4.6 3.5 1.1 0.8 0.0 0.0 0.0 0.0 0.0 1.9 3.4 3.5 2.8 3.6 2.3 2.2 0.8 0.3
12.7 13.1 13.1 13.2 13.2 13.0 12.9 12.9 12.7 12.8 12.5 12.1 11.2 11.2 11.2 11.8 11.2 10.3 9.9 9.5 8.7 8.4 8.9 9.1 9.6 8.8 8.1 8.3 9.6 9.4 8.6 8.0 8.9 8.8 8.9 9.4 8.3 7.6 7.0 6.2 6.1 7.1 6.8 9.0 10.7 9.4 5.1 2.5 2.0 0.2 0.0 0.0 0.1 0.6 0.8 2.5 4.3 4.6 4.9 4.1 3.0 2.3 1.4
13.8 13.8 13.8 13.5 13.3 13.2 13.2 12.9 12.9 13.0 12.9 12.5 12.3 12.2 12.3 12.7 12.4 11.7 11.2 10.5 9.6 9.4 9.5 9.8 9.7 8.9 9.1 9.9 10.9 10.8 10.1 10.2 11.0 10.7 11.1 11.3 10.9 10.3 9.9 10.3 9.9 9.4 10.1 10.6 11.1 11.2 11.6 6.8 6.9 5.2 3.1 0.6 0.6 3.3 4.4 3.9 5.4 5.1 7.5 7.5 7.5 4.8 4.4
14.7 14.3 14.3 14.3 14.0 14.3 14.3 14.3 14.0 13.8 13.3 13.5 13.5 14.0 14.0 13.5 12.9 12.3 12.1 11.6 10.8 10.5 10.5 10.6 10.6 10.6 10.2 11.0 11.1 11.4 11.3 11.1 11.2 11.3 11.9 11.5 11.9 11.3 11.9 12.3 12.3 12.2 12.5 12.7 13.0 12.7 12.0 12.1 8.7 7.0 9.2 4.3 2.4 3.4 3.9 6.4 8.1 11.3 8.4 7.4 8.4 9.3 5.6
15.7 15.3 15.0 15.1 15.0 14.8 14.9 15.2 15.2 14.5 14.6 15.3 15.2 14.7 14.1 13.4 13.3 13.2 13.0 12.7 12.4 12.0 11.9 11.7 11.6 11.6 11.6 11.8 11.9 12.1 12.1 11.7 12.2 11.2 12.2 11.3 11.4 12.0 12.5 13.0 12.8 13.0 13.2 13.4 13.7 13.6 13.4 12.2 12.8 10.9 8.5 6.9 6.8 9.3 8.7 6.6 8.0 11.5 10.9 11.3 9.1 8.3 9.8
16.4 16.9 16.9 16.3 16.4 16.6 16.8 17.3 16.9 16.5 16.9 16.6 15.6 14.7 14.6 14.0 13.8 14.1 14.4 14.3 14.3 14.3 14.2 14.0 13.8 13.8 13.7 13.1 12.8 12.6 12.6 12.5 12.3 12.9 13.2 12.3 11.8 12.4 12.7 13.0 13.0 13.4 13.6 13.9 14.0 14.3 13.3 13.6 13.6 13.1 12.8 12.7 12.5 12.7 12.6 9.0 8.1 11.4 8.8 9.9 11.3 10.9 7.0
18.0 18.3 18.8 18.4 18.7 18.8 18.8 18.6 17.8 17.4 16.7 15.4 15.5 15.4 15.0 15.1 15.5 15.6 15.6 15.6 16.1 15.8 15.1 15.1 15.1 14.7 13.7 13.7 13.7 13.8 13.8 13.6 13.3 13.2 13.4 13.6 13.0 12.9 12.9 13.2 13.6 13.9 13.7 13.9 14.5 14.5 14.2 14.6 14.6 13.8 12.9 12.9 12.1 9.6 8.9 10.4 10.8 12.5 11.4 10.4 12.9 12.7 11.4
20.0 20.0 19.5 19.7 20.2 20.7 20.3 19.7 19.3 18.0 16.2 15.4 14.8 15.3 15.6 16.0 16.6 16.3 16.2 16.5 17.3 17.4 16.7 16.5 16.1 16.0 15.3 15.1 15.0 15.2 14.7 14.6 14.5 14.4 14.1 13.7 13.4 13.3 13.8 14.3 14.0 13.9 13.7 14.2 14.5 14.0 14.1 14.4 14.7 13.8 12.5 12.5 12.0 10.4 10.8 11.6 11.3 12.3 13.0 13.8 14.9 16.5 14.3
20.8 20.5 20.7 20.8 21.5 21.9 21.3 20.9 19.5 17.6 16.4 15.7 15.1 14.8 15.6 16.5 17.2 17.0 16.9 17.3 17.8 17.7 17.7 17.7 17.3 17.0 16.6 16.6 16.3 16.4 16.7 16.5 16.0 15.6 15.1 14.5 14.1 13.8 13.4 13.0 13.9 14.4 14.1 14.0 14.5 14.6 14.4 14.3 14.6 14.0 13.2 13.1 12.6 12.5 11.8 12.0 12.4 13.3 14.1 14.7 14.8 15.1 15.5
21.2 21.6 21.3 22.3 23.0 22.8 21.9 21.8 20.1 17.8 16.6 16.0 15.3 14.8 15.9 17.6 17.8 17.7 17.6 18.3 18.7 18.8 18.8 18.3 18.2 18.1 17.7 17.2 16.9 17.2 17.8 18.2 18.1 16.7 15.7 14.9 14.4 14.1 13.8 13.5 12.7 12.3 13.3 13.4 14.0 14.4 14.4 13.8 13.8 14.2 13.7 12.6 12.5 11.8 13.3 13.1 13.5 13.8 13.8 14.4 14.9 14.5 13.9
21.6 21.7 22.6 23.1 23.5 23.2 22.4 22.7 20.4 17.9 16.9 16.4 15.9 15.5 16.2 18.4 18.3 18.0 18.2 19.0 19.3 19.3 19.2 18.6 18.9 19.3 19.5 18.9 19.3 19.1 19.2 19.3 18.9 18.3 17.4 16.7 16.1 15.6 14.8 14.0 13.7 13.6 13.3 13.2 14.1 14.4 14.8 13.6 12.7 13.8 13.0 12.3 11.7 13.2 13.8 13.6 14.3 14.2 15.0 15.4 15.5 14.1 13.4
22.1 22.3 22.8 23.4 23.6 23.7 23.3 22.7 19.4 18.4 17.5 17.1 16.7 16.3 17.1 18.2 18.5 18.2 18.5 19.1 19.6 19.5 18.9 18.7 19.4 19.9 20.2 20.3 20.4 19.9 19.5 19.7 19.1 18.2 18.0 17.8 17.8 17.3 16.7 15.8 15.0 14.6 14.5 14.3 14.0 13.9 13.9 13.5 12.8 12.8 12.4 12.2 11.8 12.4 12.6 12.6 13.6 13.8 14.4 14.6 14.3 14.4 14.4
21.8 22.4 22.8 23.1 23.9 24.2 23.9 22.6 20.0 19.0 18.2 17.8 17.3 17.1 18.6 18.9 19.2 18.9 19.1 19.5 19.2 19.0 18.4 18.8 19.6 20.3 20.8 21.0 21.0 19.9 18.5 17.8 17.8 18.3 18.7 18.9 18.7 18.4 17.6 16.6 14.8 13.0 13.1 13.8 13.7 13.5 13.6 13.4 12.9 11.7 12.4 11.9 11.9 11.9 12.0 12.3 12.7 13.3 14.4 15.6 16.9 17.6 16.1
22.5 22.1 22.5 23.3 24.1 24.5 24.1 23.7 21.9 19.8 19.0 18.4 17.8 18.6 19.6 19.5 19.1 19.3 19.8 19.8 19.2 18.7 18.9 19.3 19.5 20.0 20.6 21.1 21.4 19.8 17.8 16.8 17.1 18.5 19.1 19.7 19.9 19.2 18.4 17.7 16.2 16.4 15.8 14.8 14.4 14.1 13.1 11.7 10.4 10.1 10.2 10.2 10.2 11.9 11.9 12.9 15.0 16.3 15.3 17.0 18.6 18.5 17.8
22.5 22.1 22.1 23.3 24.6 24.2 24.7 24.5 23.2 20.9 19.8 19.1 18.5 18.9 20.4 20.2 20.0 20.4 20.2 20.0 19.2 18.9 19.2 19.1 19.1 19.7 21.0 21.7 21.6 19.4 17.9 17.1 17.8 19.9 20.9 21.6 21.5 21.2 20.5 19.6 19.0 19.8 19.2 16.6 15.8 15.6 15.1 14.5 13.5 12.4 12.0 11.8 11.7 11.9 12.5 14.4 16.6 15.7 15.1 17.5 17.7 19.1 18.0
22.6 22.6 22.3 22.7 24.1 23.3 24.3 24.9 24.0 22.1 20.5 19.7 19.3 19.6 20.5 20.5 20.8 21.2 21.1 20.5 20.2 19.7 19.8 20.1 20.2 20.3 20.9 21.5 21.3 19.5 18.8 18.2 19.2 20.6 21.5 22.5 22.4 22.5 22.5 21.3 21.3 22.3 21.8 21.0 20.4 19.7 18.8 17.8 16.3 15.3 14.8 14.4 13.8 13.5 13.5 14.2 14.8 14.7 15.8 17.5 17.9 17.8 18.0
23.1 23.7 23.3 22.4 23.0 23.7 24.3 25.0 25.1 23.8 21.1 20.4 19.9 19.5 20.5 20.8 21.6 22.1 21.7 21.1 21.5 21.7 21.5 21.8 22.2 21.5 21.7 21.2 21.0 20.4 19.5 19.2 18.8 20.8 21.8 22.8 23.6 23.7 24.0 21.4 22.8 22.4 21.8 21.7 21.2 20.9 19.8 19.1 17.6 16.5 15.6 15.3 15.1 14.7 14.4 14.3 14.3 14.7 15.3 16.3 17.6 17.6 18.1
24.7 24.2 23.8 22.8 23.1 23.3 24.0 24.3 25.1 24.5 22.0 21.2 20.5 19.9 20.2 21.0 22.2 22.5 22.9 23.1 23.4 23.3 23.8 23.8 23.8 23.8 23.4 23.3 22.1 20.9 20.1 19.9 19.8 20.1 22.2 23.7 24.2 23.3 21.7 21.8 24.3 23.3 21.5 22.1 21.2 20.6 19.8 18.7 17.8 17.2 16.2 15.5 15.1 14.8 14.5 14.4 14.2 14.3 14.9 15.7 17.0 17.7 18.0
24.9 23.9 23.5 22.8 22.6 23.0 23.8 23.6 23.9 24.7 23.6 22.1 21.3 20.5 19.4 22.3 23.1 22.8 24.4 24.8 25.1 25.0 25.3 25.5 25.3 26.1 24.9 24.3 22.3 21.3 21.1 21.0 21.1 21.3 24.0 24.0 21.5 21.1 21.9 24.7 24.0 23.4 22.6 22.4 21.9 21.4 20.8 20.2 19.4 18.7 17.9 17.2 16.2 15.3 14.9 14.8 14.6 14.4 14.9 14.7 15.1 16.1 17.5
25.1 24.6 24.1 23.8 22.7 23.1 23.7 23.8 23.8 23.8 24.7 23.4 22.0 20.9 20.1 21.2 23.0 22.7 24.8 26.1 27.0 26.7 26.7 26.4 27.1 26.3 25.3 24.2 22.5 22.5 22.4 22.6 22.8 24.4 24.8 22.7 22.9 23.3 24.7 24.5 24.6 23.9 24.1 23.9 23.4 22.9 22.8 21.8 20.8 20.0 19.2 18.3 17.8 16.8 16.3 16.0 15.3 15.0 15.3 15.4 15.0 14.6 14.7
23.5 23.7 24.1 24.4 24.0 23.5 23.5 23.8 24.1 24.2 24.1 24.4 23.1 21.5 21.3 22.2 22.6 23.3 26.1 26.4 27.0 27.0 27.5 28.0 28.1 26.8 24.7 23.9 24.1 23.9 24.0 24.2 25.5 25.9 24.3 24.6 25.8 26.2 25.5 25.8 25.9 26.1 26.2 25.7 25.5 24.9 24.2 23.3 21.8 20.9 20.3 19.4 19.2 20.0 19.9 18.7 17.9 17.3 16.2 16.1 15.8 15.5 15.4
24.2 24.7 24.5 24.7 25.3 25.1 24.9 24.6 24.7 24.9 24.5 24.2 23.7 22.7 22.3 22.9 24.3 25.6 26.3 27.7 27.3 27.8 28.3 27.9 25.8 25.4 25.5 25.7 25.6 25.5 26.0 27.0 27.3 26.7 26.8 27.3 27.2 27.0 27.5 27.6 27.9 28.2 27.9 28.3 27.6 26.7 26.3 26.0 24.9 24.5 24.2 23.5 23.2 21.9 20.6 19.5 18.1 17.4 17.0 16.6 16.4 16.1 15.8
25.2 25.3 25.1 25.4 25.6 26.0 26.1 25.6 25.5 25.7 25.5 24.8 23.8 24.1 23.8 23.9 26.3 26.8 27.0 27.4 28.0 28.1 28.4 28.2 27.7 28.2 28.1 28.4 28.5 28.8 29.1 29.3 29.1 28.3 28.1 28.7 28.6 29.3 28.8 29.1 29.5 29.6 29.8 29.8 28.9 28.8 28.8 28.0 26.6 26.0 25.0 24.6 23.8 23.0 22.1 20.4 19.8 19.1 19.1 18.0 18.2 18.4 18.3
26.0 25.8 25.7 26.4 26.7 26.8 26.5 26.2 26.2 26.4 26.2 25.8 25.1 25.7 25.3 26.6 28.5 27.7 28.0 28.8 29.4 29.7 30.3 29.8 29.3 29.1 29.0 29.0 28.8 28.8 28.7 29.3 29.3 30.0 30.1 30.5 30.4 30.1 29.8 30.1 30.3 30.5 30.7 30.4 30.6 30.3 29.7 28.3 27.2 26.0 25.9 25.7 24.9 24.8 23.4 21.8 21.6 21.3 20.4 19.4 19.2 19.4 19.9
26.8 26.3 26.8 27.5 27.4 27.4 27.4 27.2 27.3 27.3 27.6 26.9 26.3 26.8 26.3 28.1 29.8 30.0 30.2 30.7 31.0 31.2 30.8 30.5 29.6 29.7 30.5 30.6 30.9 30.8 30.9 31.1 31.2 31.1 31.1 31.5 31.2 31.0 30.6 30.4 29.6 29.9 30.8 31.2 30.8 30.7 29.5 29.2 28.7 29.2 28.3 27.3 26.8 26.1 25.1 23.7 23.8 24.0 23.9 22.0 20.5 21.3 21.6
26.5 26.1 27.2 27.5 27.8 28.5 28.8 28.7 29.0 28.6 26.5 25.2 25.5 26.9 27.6 29.1 31.3 31.3 31.5 31.1 30.4 31.3 31.2 30.7 31.5 31.8 32.6 32.6 33.0 33.1 33.1 32.8 32.8 32.7 32.2 32.7 32.3 31.9 31.8 32.0 32.3 33.2 33.1 32.5 32.0 31.9 31.6 31.6 30.7 30.5 29.3 29.0 29.0 28.4 27.5 26.4 26.5 25.7 25.4 24.7 23.7 23.0 21.8
25.8 26.7 27.5 28.0 27.2 27.9 29.8 30.5 29.5 27.1 24.8 24.3 25.3 26.0 26.3 26.8 27.7 30.2 31.4 31.2 30.7 31.0 33.0 32.7 33.5 33.3 34.0 34.2 34.2 34.4 34.5 34.3 34.1 34.2 34.1 33.4 32.4 32.6 32.8 32.9 33.2 33.4 33.4 32.8 32.5 32.3 32.5 32.5 31.9 32.1 31.3 31.4 31.2 30.4 29.6 28.3 27.6 27.9 26.3 26.4 26.1 25.3 23.3
24.8 25.2 26.7 27.5 28.6 28.3 27.7 28.4 28.3 27.7 25.3 25.5 26.1 27.3 26.9 27.4 28.8 29.5 31.0 31.4 32.3 32.8 33.8 34.4 34.7 34.6 34.7 34.8 34.9 35.0 35.3 34.9 35.1 35.0 35.0 34.7 34.0 33.7 33.5 33.4 33.9 33.9 33.6 33.3 33.1 33.1 33.0 32.8 32.9 33.2 32.7 32.9 32.3 31.9 31.3 30.6 29.2 28.8 28.5 28.1 27.2 27.0 26.1
26.3 26.0 26.1 26.8 27.3 28.2 29.1 28.8 28.7 28.2 26.4 26.7 27.2 28.4 29.1 28.5 29.3 29.6 31.1 32.1 31.6 34.5 34.6 34.9 35.3 35.5 35.8 35.7 36.1 35.7 35.5 35.5 35.8 35.7 35.7 35.5 35.5 35.2 34.3 34.3 34.9 34.1 34.3 33.7 33.8 34.1 34.0 33.8 33.7 33.8 33.6 33.4 33.0 32.3 32.6 32.1 31.7 31.2 30.5 29.6 28.5 27.8 26.5
28.3 28.1 27.8 27.5 27.5 27.5 28.5 29.4 29.2 28.6 27.8 28.2 28.6 29.0 31.3 30.5 30.8 31.9 32.4 32.3 33.9 35.3 35.5 35.5 35.8 36.1 36.3 36.3 36.7 36.3 36.3 36.3 36.3 36.4 36.2 35.9 36.1 36.2 35.4 34.8 34.7 34.0 34.0 33.7 34.1 34.3 34.6 34.2 34.3 34.3 34.3 33.8 33.5 33.6 34.1 33.2 33.1 32.1 31.3 30.7 30.7 29.6 28.6
30.3 30.7 30.6 30.3 30.1 30.2 30.4 30.4 29.9 29.8 30.0 29.8 30.4 30.5 30.9 31.6 31.8 31.4 32.0 33.7 35.6 35.6 36.2 36.0 36.3 36.4 36.6 36.6 36.4 36.4 36.4 36.7 36.8 36.7 36.6 36.4 36.3 36.2 35.7 35.5 34.8 34.6 34.3 34.4 34.6 35.0 34.7 34.5 34.8 34.7 35.2 35.2 34.8 34.3 34.1 34.4 33.6 32.9 32.9 32.8 32.2 32.0 31.3
32.1 31.9 31.9 32.4 32.3 32.1 32.0 32.1 31.9 31.6 31.2 31.3 32.1 32.4 32.0 31.6 33.8 34.8 34.6 34.5 35.4 35.6 36.1 36.4 36.5 36.7 36.7 36.6 36.9 36.8 36.7 37.1 37.3 37.0 37.1 37.1 37.1 36.8 36.4 36.2 35.7 35.3 35.0 35.3 35.3 35.4 35.3 35.0 35.4 35.4 35.1 35.3 35.8 35.7 35.8 35.1 34.4 34.0 33.5 33.6 33.3 32.7 32.3
32.7 33.5 33.0 32.7 32.9 32.8 32.7 32.7 32.6 32.3 31.7 31.0 31.5 32.5 33.3 35.4 35.7 35.8 35.8 35.8 35.5 36.2 36.1 36.0 36.2 36.6 36.7 36.6 36.8 36.6 37.0 37.0 37.2 37.3 37.3 37.2 37.3 37.4 37.3 37.0 36.4 36.0 35.9 35.9 35.9 35.8 35.4 35.3 35.7 35.4 35.6 35.6 35.7 36.1 35.8 35.5 35.1 34.6 34.0 33.8 33.9 33.3 33.2